SR9NCI Weather Reports


time (UTC)temp
F
wind
direction
speed
knots
gust
knots
rain 1hr
in
rain 24hr
in
rain mn
in
humidity
%
barometer
mb
20260902163244 76 338 1.7 2.6 0.00 0.00 0.00
20260902162843 76 338 0.9 2.6 0.00 0.00 0.00
20260902162442 76 338 0.0 0.9 0.00 0.00 0.00
20260902162040 77 338 0.0 0.9 0.00 0.00 0.00
20260902161632 76 315 0.0 0.0 0.00 0.00 0.00
20260902161229 76 315 0.0 0.0 0.00 0.00 0.00
20260902160828 77 315 0.0 2.6 0.00 0.00 0.00
20260902160427 77 315 0.0 0.9 0.00 0.00 0.00
20260902160025 77 314 0.9 2.6 0.00 0.00 0.00
20260902155623 77 292 1.7 3.5 0.00 0.00 0.00
20260902155221 77 302 1.7 3.5 0.00 0.00 0.00
20260902154820 78 315 1.7 3.5 0.00 0.00 0.00
20260902154419 77 315 0.9 2.6 0.00 0.00 0.00
20260902154016 77 311 1.7 3.5 0.00 0.00 0.00
20260902153608 77 292 0.9 1.7 0.00 0.00 0.00
20260902153206 77 292 1.7 3.5 0.00 0.00 0.00
20260902152804 78 292 1.7 3.5 0.00 0.00 0.00
20260902152402 78 305 0.9 4.3 0.00 0.00 0.00
20260902152000 78 292 1.7 3.5 0.00 0.00 0.00
20260902151559 78 296 1.7 5.2 0.00 0.00 0.00
20260902151157 78 282 1.7 2.6 0.00 0.00 0.00
20260902150756 79 313 2.6 5.2 0.00 0.00 0.00
20260902150354 79 309 0.9 3.5 0.00 0.00 0.00
20260902145952 78 341 2.6 7.0 0.00 0.00 0.00
20260902145544 79 300 5.2 10.4 0.00 0.00 0.00
20260902145142 79 241 4.3 8.7 0.00 0.00 0.00
20260902144740 79 240 5.2 7.8 0.00 0.00 0.00
20260902143937 79 249 3.5 7.0 0.00 0.00 0.00
20260902143536 79 220 3.5 7.0 0.00 0.00 0.00
20260902143133 80 210 5.2 7.8 0.00 0.00 0.00
20260902142732 79 250 4.3 7.0 0.00 0.00 0.00
20260902142331 79 257 4.3 7.0 0.00 0.00 0.00
20260902141929 79 253 7.0 8.7 0.00 0.00 0.00
20260902141520 79 222 6.1 9.6 0.00 0.00 0.00
20260902141118 79 254 4.3 6.1 0.00 0.00 0.00
20260902140717 79 249 3.5 4.3 0.00 0.00 0.00
20260902140316 79 275 5.2 8.7 0.00 0.00 0.00
20260902135915 79 281 6.1 9.6 0.00 0.00 0.00
20260902135513 79 277 4.3 6.1 0.00 0.00 0.00
20260902134710 79 231 5.2 7.8 0.00 0.00 0.00
20260902134309 78 248 7.8 11.3 0.00 0.00 0.00
20260902133906 79 274 5.2 9.6 0.00 0.00 0.00
20260902133458 79 264 6.1 8.7 0.00 0.00 0.00
20260902133056 79 256 3.5 7.0 0.00 0.00 0.00
20260902132655 78 259 6.1 8.7 0.00 0.00 0.00
20260902131851 78 262 2.6 4.3 0.00 0.00 0.00
20260902131450 77 307 4.3 7.0 0.00 0.00 0.00
20260902131048 79 284 4.3 8.7 0.00 0.00 0.00
20260902130646 79 354 3.5 7.0 0.00 0.00 0.00
20260902130245 79 269 4.3 7.0 0.00 0.00 0.00
20260902125843 78 316 4.3 7.0 0.00 0.00 0.00
20260902125435 78 342 5.2 8.7 0.00 0.00 0.00
20260902125033 78 299 4.3 7.8 0.00 0.00 0.00
20260902124631 79 296 4.3 7.8 0.00 0.00 0.00
20260902124230 79 278 2.6 4.3 0.00 0.00 0.00
20260902123828 78 317 2.6 4.3 0.00 0.00 0.00
20260902123427 79 275 2.6 5.2 0.00 0.00 0.00
20260902123025 78 300 2.6 4.3 0.00 0.00 0.00
20260902122624 78 315 1.7 6.1 0.00 0.00 0.00
20260902122223 76 313 3.5 6.1 0.00 0.00 0.00
20260902121821 77 260 3.5 5.2 0.00 0.00 0.00
20260902121412 76 272 6.1 8.7 0.00 0.00 0.00
20260902121010 76 270 5.2 8.7 0.00 0.00 0.00
20260902120609 76 270 4.3 8.7 0.00 0.00 0.00
20260902120208 76 271 7.0 9.6 0.00 0.00 0.00
20260902115805 77 264 7.0 10.4 0.00 0.00 0.00
20260902115404 78 244 7.0 10.4 0.00 0.00 0.00
20260902115002 79 223 5.2 9.6 0.00 0.00 0.00
20260902114601 78 219 6.1 10.4 0.00 0.00 0.00
20260902114200 78 266 6.1 10.4 0.00 0.00 0.00
20260902113757 78 229 6.1 10.4 0.00 0.00 0.00
20260902113349 77 273 6.1 9.6 0.00 0.00 0.00
20260902112947 76 255 6.1 8.7 0.00 0.00 0.00
20260902112546 76 270 3.5 7.0 0.00 0.00 0.00
20260902112144 76 250 6.1 9.6 0.00 0.00 0.00
20260902111742 77 240 6.1 8.7 0.00 0.00 0.00
20260902111341 78 276 4.3 7.8 0.00 0.00 0.00
20260902110940 77 279 7.0 10.4 0.00 0.00 0.00
20260902110537 77 249 10.4 13.9 0.00 0.00 0.00
20260902110136 77 280 7.0 10.4 0.00 0.00 0.00
20260902105735 76 269 7.0 9.6 0.00 0.00 0.00
20260902105327 77 266 7.8 11.3 0.00 0.00 0.00
20260902104924 77 238 4.3 6.1 0.00 0.00 0.00
20260902104523 77 214 7.0 10.4 0.00 0.00 0.00
20260902104122 77 220 5.2 8.7 0.00 0.00 0.00
20260902103720 77 262 5.2 8.7 0.00 0.00 0.00
20260902103319 77 264 4.3 8.7 0.00 0.00 0.00
20260902102916 76 243 3.5 6.1 0.00 0.00 0.00
20260902102515 75 268 3.5 5.2 0.00 0.00 0.00
20260902102114 74 255 5.2 8.7 0.00 0.00 0.00
20260902101712 74 266 6.1 8.7 0.00 0.00 0.00
20260902101303 75 277 7.0 11.3 0.00 0.00 0.00
20260902100901 75 282 6.1 10.4 0.00 0.00 0.00
20260902100500 75 275 5.2 7.0 0.00 0.00 0.00
20260902100059 74 244 5.2 8.7 0.00 0.00 0.00
20260902095656 74 270 7.0 8.7 0.00 0.00 0.00
20260902095255 74 257 5.2 8.7 0.00 0.00 0.00
20260902094853 75 241 5.2 7.8 0.00 0.00 0.00
20260902094452 74 236 5.2 7.8 0.00 0.00 0.00
20260902094050 74 240 5.2 8.7 0.00 0.00 0.00
20260902093648 75 202 7.0 9.6 0.00 0.00 0.00
20260902093240 75 225 7.0 12.2 0.00 0.00 0.00
20260902092839 75 203 5.2 9.6 0.00 0.00 0.00
20260902092438 75 219 6.1 10.4 0.00 0.00 0.00
20260902092035 75 222 4.3 7.8 0.00 0.00 0.00
20260902091634 74 269 4.3 7.8 0.00 0.00 0.00
20260902091233 75 247 5.2 8.7 0.00 0.00 0.00
20260902090831 74 262 4.3 7.8 0.00 0.00 0.00
20260902090428 74 254 7.0 9.6 0.00 0.00 0.00
20260902090027 74 232 4.3 6.1 0.00 0.00 0.00
20260902085625 75 229 6.1 8.7 0.00 0.00 0.00
20260902085216 75 218 5.2 8.7 0.00 0.00 0.00
20260902084813 75 196 5.2 8.7 0.00 0.00 0.00
20260902084412 75 178 5.2 7.8 0.00 0.00 0.00
20260902084011 75 172 2.6 3.5 0.00 0.00 0.00
20260902083610 74 180 2.6 6.1 0.00 0.00 0.00
20260902083208 75 180 3.5 5.2 0.00 0.00 0.00
20260902082806 75 157 1.7 7.0 0.00 0.00 0.00
20260902082405 74 157 1.7 3.5 0.00 0.00 0.00
20260902082003 74 157 1.7 3.5 0.00 0.00 0.00
20260902081601 74 157 1.7 2.6 0.00 0.00 0.00
20260902081152 74 157 2.6 4.3 0.00 0.00 0.00
20260902080750 74 157 2.6 4.3 0.00 0.00 0.00
20260902080349 73 157 1.7 4.3 0.00 0.00 0.00
20260902075948 73 157 2.6 4.3 0.00 0.00 0.00
20260902075628 72 157 2.6 5.2 0.00 0.00 0.00
20260902075545 72 157 2.6 5.2 0.00 0.00 0.00
20260902075144 72 144 4.3 7.0 0.00 0.00 0.00
20260902074742 71 135 3.5 5.2 0.00 0.00 0.00
20260902074342 71 142 4.3 7.0 0.00 0.00 0.00
20260902073939 71 146 3.5 5.2 0.00 0.00 0.00
20260902073538 71 150 5.2 7.8 0.00 0.00 0.00
20260902073130 70 158 6.1 8.7 0.00 0.00 0.00
20260902072728 70 156 4.3 7.0 0.00 0.00 0.00
20260902072326 70 162 4.3 7.0 0.00 0.00 0.00
20260902071925 70 156 6.1 8.7 0.00 0.00 0.00
20260902071523 69 152 6.1 7.8 0.00 0.00 0.00
20260902071122 70 152 5.2 7.8 0.00 0.00 0.00
20260902070720 69 152 5.2 8.7 0.00 0.00 0.00
20260902070318 70 141 4.3 7.8 0.00 0.00 0.00
20260902065917 69 144 6.1 7.8 0.00 0.00 0.00
20260902065515 70 145 5.2 7.8 0.00 0.00 0.00
20260902065107 70 143 4.3 7.8 0.00 0.00 0.00
20260902064704 70 156 5.2 8.7 0.00 0.00 0.00
20260902064303 71 157 3.5 5.2 0.00 0.00 0.00
20260902063902 70 157 4.3 7.0 0.00 0.00 0.00
20260902063500 70 157 2.6 3.5 0.00 0.00 0.00
20260902063058 68 157 2.6 4.3 0.00 0.00 0.00
20260902062656 68 143 3.5 6.1 0.00 0.00 0.00
20260902062255 67 145 3.5 8.7 0.00 0.00 0.00
20260902061853 67 152 4.3 6.1 0.00 0.00 0.00
20260902061450 66 145 2.6 6.1 0.00 0.00 0.00
20260902061042 66 148 3.5 6.1 0.00 0.00 0.00
20260902060640 66 146 1.7 4.3 0.00 0.00 0.00
20260902060239 67 149 3.5 5.2 0.00 0.00 0.00
20260902055838 66 139 3.5 7.0 0.00 0.00 0.00
20260902055435 66 138 3.5 6.1 0.00 0.00 0.00
20260902055035 66 143 2.6 4.3 0.00 0.00 0.00
20260902054633 66 157 2.6 5.2 0.00 0.00 0.00
20260902054232 66 135 1.7 2.6 0.00 0.00 0.00
20260902053830 65 147 2.6 4.3 0.00 0.00 0.00
20260902053428 65 146 4.3 7.8 0.00 0.00 0.00
20260902053020 64 151 4.3 5.2 0.00 0.00 0.00
20260902052618 65 142 5.2 8.7 0.00 0.00 0.00
20260902052216 64 139 5.2 8.7 0.00 0.00 0.00
20260902051815 64 141 4.3 7.0 0.00 0.00 0.00
20260902051413 64 146 3.5 7.0 0.00 0.00 0.00
20260902051012 64 137 5.2 8.7 0.00 0.00 0.00
20260902050609 65 139 4.3 7.8 0.00 0.00 0.00
20260902050208 64 144 5.2 7.8 0.00 0.00 0.00
20260902045807 64 136 4.3 7.0 0.00 0.00 0.00
20260902045405 64 124 3.5 5.2 0.00 0.00 0.00
20260902044957 64 144 4.3 7.0 0.00 0.00 0.00
20260902044554 63 144 4.3 6.1 0.00 0.00 0.00
20260902044153 63 154 3.5 7.0 0.00 0.00 0.00
20260902043752 63 143 4.3 8.7 0.00 0.00 0.00
20260902043350 63 151 7.0 12.2 0.00 0.00 0.00
20260902042947 62 156 5.2 7.8 0.00 0.00 0.00
20260902042545 62 153 5.2 8.7 0.00 0.00 0.00
20260902042144 63 150 7.0 8.7 0.00 0.00 0.00
20260902041742 62 148 6.1 7.8 0.00 0.00 0.00
20260902041339 62 148 4.3 7.0 0.00 0.00 0.00
20260902040932 62 153 6.1 8.7 0.00 0.00 0.00
20260902040530 62 151 5.2 8.7 0.00 0.00 0.00
20260902040129 60 156 5.2 7.8 0.00 0.00 0.00
20260902035325 62 153 5.2 7.0 0.00 0.00 0.00
20260902034924 62 153 6.1 7.8 0.00 0.00 0.00
20260902034521 63 151 5.2 7.0 0.00 0.00 0.00
20260902034120 62 152 5.2 7.8 0.00 0.00 0.00
20260902033718 63 133 4.3 7.0 0.00 0.00 0.00
20260902033316 63 155 5.2 7.8 0.00 0.00 0.00
20260902032908 63 150 5.2 7.8 0.00 0.00 0.00
20260902032506 62 148 4.3 7.8 0.00 0.00 0.00
20260902032104 62 153 4.3 6.1 0.00 0.00 0.00
20260902031703 62 151 7.0 8.7 0.00 0.00 0.00
20260902031301 63 158 6.1 7.8 0.00 0.00 0.00
20260902030901 63 151 5.2 7.0 0.00 0.00 0.00
20260902030457 63 147 4.3 7.0 0.00 0.00 0.00
20260902030056 63 144 5.2 8.7 0.00 0.00 0.00
20260902025655 62 132 5.2 7.8 0.00 0.00 0.00
20260902025254 62 142 5.2 7.8 0.00 0.00 0.00
20260902024844 63 148 6.1 7.8 0.00 0.00 0.00
20260902024443 62 152 5.2 7.0 0.00 0.00 0.00
20260902024042 62 151 6.1 7.8 0.00 0.00 0.00
20260902023641 62 152 5.2 8.7 0.00 0.00 0.00
20260902023239 62 151 5.2 8.7 0.00 0.00 0.00
20260902022837 62 145 6.1 8.7 0.00 0.00 0.00
20260902022435 62 155 3.5 7.0 0.00 0.00 0.00
20260902022034 62 146 4.3 7.0 0.00 0.00 0.00
20260902021633 62 146 2.6 5.2 0.00 0.00 0.00
20260902021230 61 157 3.5 5.2 0.00 0.00 0.00
20260902020822 61 159 4.3 7.0 0.00 0.00 0.00
20260902020420 62 153 4.3 6.1 0.00 0.00 0.00
20260902020019 61 152 5.2 7.0 0.00 0.00 0.00
20260902015617 62 153 3.5 7.0 0.00 0.00 0.00
20260902015215 62 150 5.2 7.0 0.00 0.00 0.00
20260902014814 62 151 5.2 7.0 0.00 0.00 0.00
20260902014412 62 157 6.1 8.7 0.00 0.00 0.00
20260902014010 62 156 4.3 7.0 0.00 0.00 0.00
20260902013609 62 158 5.2 7.8 0.00 0.00 0.00
20260902013207 63 145 5.2 7.8 0.00 0.00 0.00
20260902012759 63 148 5.2 7.8 0.00 0.00 0.00
20260902012358 62 140 4.3 7.8 0.00 0.00 0.00
20260902011955 62 153 3.5 7.0 0.00 0.00 0.00
20260902011555 62 150 4.3 6.1 0.00 0.00 0.00
20260902011153 62 154 4.3 6.1 0.00 0.00 0.00
20260902010752 63 158 4.3 7.0 0.00 0.00 0.00
20260902010349 63 160 6.1 7.8 0.00 0.00 0.00
20260902005948 63 158 4.3 7.0 0.00 0.00 0.00
20260902005547 62 153 5.2 7.0 0.00 0.00 0.00
20260902005145 63 152 2.6 5.2 0.00 0.00 0.00
20260902004736 63 144 4.3 7.0 0.00 0.00 0.00
20260902004334 63 157 5.2 7.8 0.00 0.00 0.00
20260902003933 62 155 3.5 6.1 0.00 0.00 0.00
20260902003532 63 156 6.1 7.8 0.00 0.00 0.00
20260902003129 62 156 4.3 7.8 0.00 0.00 0.00
20260902002728 62 151 5.2 7.8 0.00 0.00 0.00
20260902002326 62 153 4.3 6.1 0.00 0.00 0.00
20260902001925 62 161 5.2 7.0 0.00 0.00 0.00
20260902001524 62 143 4.3 7.0 0.00 0.00 0.00
20260902001121 63 150 3.5 5.2 0.00 0.00 0.00
20260902000713 62 143 3.5 5.2 0.00 0.00 0.00
20260902000312 63 150 3.5 5.2 0.00 0.00 0.00
20260901235508 63 158 5.2 7.0 0.00 0.00 0.00
20260901235106 62 159 3.5 7.8 0.00 0.00 0.00
20260901234705 63 157 3.5 7.0 0.00 0.00 0.00
20260901234303 63 153 5.2 8.7 0.00 0.00 0.00
20260901233901 63 157 3.5 6.1 0.00 0.00 0.00
20260901233500 62 162 3.5 5.2 0.00 0.00 0.00
20260901233058 62 162 4.3 7.0 0.00 0.00 0.00
20260901232651 63 162 3.5 5.2 0.00 0.00 0.00
20260901232247 62 161 4.3 6.1 0.00 0.00 0.00
20260901231847 62 156 2.6 4.3 0.00 0.00 0.00
20260901231446 62 158 3.5 6.1 0.00 0.00 0.00
20260901231044 62 157 3.5 4.3 0.00 0.00 0.00
20260901230643 63 154 3.5 5.2 0.00 0.00 0.00
20260901230240 63 157 2.6 3.5 0.00 0.00 0.00
20260901225839 63 157 2.6 5.2 0.00 0.00 0.00
20260901225438 64 145 2.6 4.3 0.00 0.00 0.00
20260901225036 63 145 2.6 3.5 0.00 0.00 0.00
20260901224627 63 138 3.5 5.2 0.00 0.00 0.00
20260901224225 63 147 5.2 6.1 0.00 0.00 0.00
20260901223824 64 153 3.5 7.0 0.00 0.00 0.00
20260901223423 63 157 3.5 5.2 0.00 0.00 0.00
20260901223020 63 157 4.3 6.1 0.00 0.00 0.00
20260901222217 63 157 2.6 4.3 0.00 0.00 0.00
20260901221816 64 144 3.5 5.2 0.00 0.00 0.00
20260901221414 65 133 3.5 6.1 0.00 0.00 0.00
20260901221014 64 124 2.6 5.2 0.00 0.00 0.00
20260901220604 63 133 2.6 4.3 0.00 0.00 0.00
20260901220203 63 135 2.6 4.3 0.00 0.00 0.00
20260901215802 63 138 3.5 4.3 0.00 0.00 0.00
20260901215359 64 141 2.6 4.3 0.00 0.00 0.00
20260901214958 63 144 3.5 5.2 0.00 0.00 0.00
20260901214557 64 140 2.6 3.5 0.00 0.00 0.00
20260901214154 63 135 2.6 3.5 0.00 0.00 0.00
20260901213752 63 135 2.6 4.3 0.00 0.00 0.00
20260901213351 63 157 2.6 4.3 0.00 0.00 0.00
20260901212949 63 157 2.6 4.3 0.00 0.00 0.00
20260901212541 64 157 2.6 4.3 0.00 0.00 0.00
20260901212138 63 157 2.6 4.3 0.00 0.00 0.00
20260901211737 63 159 3.5 4.3 0.00 0.00 0.00
20260901211336 64 143 2.6 5.2 0.00 0.00 0.00
20260901210935 64 147 2.6 3.5 0.00 0.00 0.00
20260901210532 63 157 2.6 4.3 0.00 0.00 0.00
20260901210131 65 140 3.5 5.2 0.00 0.00 0.00
20260901205730 65 147 2.6 4.3 0.00 0.00 0.00
20260901205329 65 147 3.5 6.1 0.00 0.00 0.00
20260901204927 65 157 3.5 5.2 0.00 0.00 0.00
20260901204518 63 157 2.6 4.3 0.00 0.00 0.00
20260901204115 63 143 1.7 3.5 0.00 0.00 0.00
20260901203714 64 153 2.6 5.2 0.00 0.00 0.00
20260901203313 64 139 1.7 3.5 0.00 0.00 0.00
20260901202910 64 157 2.6 5.2 0.00 0.00 0.00
20260901202509 64 135 1.7 2.6 0.00 0.00 0.00
20260901202106 65 157 1.7 2.6 0.00 0.00 0.00
20260901201705 65 143 2.6 4.3 0.00 0.00 0.00
20260901201303 65 153 2.6 4.3 0.00 0.00 0.00
20260901200901 65 136 2.6 3.5 0.00 0.00 0.00
20260901200453 64 135 1.7 2.6 0.00 0.00 0.00
20260901200051 65 138 1.7 3.5 0.00 0.00 0.00
20260901195649 64 135 1.7 2.6 0.00 0.00 0.00
20260901195248 63 197 0.9 1.7 0.00 0.00 0.00
20260901194846 63 202 0.9 1.7 0.00 0.00 0.00
20260901194445 63 202 0.9 1.7 0.00 0.00 0.00
20260901194043 63 202 0.9 1.7 0.00 0.00 0.00
20260901193641 64 213 1.7 3.5 0.00 0.00 0.00
20260901193240 64 225 1.7 1.7 0.00 0.00 0.00
20260901192839 63 225 0.0 0.9 0.00 0.00 0.00
20260901192431 63 225 0.9 1.7 0.00 0.00 0.00
20260901192027 64 225 0.9 1.7 0.00 0.00 0.00
20260901191627 65 237 1.7 3.5 0.00 0.00 0.00
20260901191226 65 248 2.6 2.6 0.00 0.00 0.00
20260901190824 64 292 1.7 1.7 0.00 0.00 0.00
20260901190422 64 292 0.0 0.9 0.00 0.00 0.00
20260901190020 65 292 0.0 1.7 0.00 0.00 0.00
20260901185619 65 292 0.0 0.9 0.00 0.00 0.00
20260901185218 65 292 0.9 1.7 0.00 0.00 0.00
20260901184815 65 292 0.9 1.7 0.00 0.00 0.00
20260901184407 65 292 0.9 1.7 0.00 0.00 0.00
20260901184005 65 292 0.9 1.7 0.00 0.00 0.00
20260901183604 65 298 0.9 1.7 0.00 0.00 0.00
20260901183203 65 315 0.0 0.9 0.00 0.00 0.00
20260901182800 65 315 0.0 0.0 0.00 0.00 0.00
20260901182359 65 315 0.0 0.0 0.00 0.00 0.00
20260901181957 67 315 0.0 0.0 0.00 0.00 0.00
20260901181556 68 315 0.0 0.0 0.00 0.00 0.00
20260901181154 68 315 0.0 0.0 0.00 0.00 0.00
20260901180752 68 313 0.0 1.7 0.00 0.00 0.00
20260901180344 68 315 0.0 0.0 0.00 0.00 0.00
20260901175942 67 315 0.0 0.0 0.00 0.00 0.00
20260901175540 67 315 0.0 0.0 0.00 0.00 0.00
20260901175139 68 315 0.0 0.9 0.00 0.00 0.00
20260901174737 68 315 0.9 1.7 0.00 0.00 0.00
20260901174336 68 315 0.9 1.7 0.00 0.00 0.00
20260901173532 69 315 0.9 1.7 0.00 0.00 0.00
20260901173414 69 315 0.0 1.7 0.00 0.00 0.00
20260901173131 69 315 0.0 1.7 0.00 0.00 0.00
20260901172729 70 315 0.9 1.7 0.00 0.00 0.00
20260901171918 70 315 0.0 1.7 0.00 0.00 0.00
20260901171517 71 293 1.7 3.5 0.00 0.00 0.00
20260901171116 71 292 0.9 1.7 0.00 0.00 0.00
20260901170714 71 292 0.9 2.6 0.00 0.00 0.00
20260901170312 71 295 1.7 2.6 0.00 0.00 0.00
20260901165911 71 305 2.6 4.3 0.00 0.00 0.00
20260901165510 72 292 2.6 5.2 0.00 0.00 0.00
20260901165109 73 292 2.6 3.5 0.00 0.00 0.00
20260901164706 74 292 3.5 4.3 0.00 0.00 0.00
20260901164258 75 307 3.5 5.2 0.00 0.00 0.00
20260901163856 77 315 1.7 3.5 0.00 0.00 0.00
20260901163455 76 298 2.6 5.2 0.00 0.00 0.00